Weather History for Martinsburg, WV

Change the Weather History Date:

Friday, November 2, 2012

  Actual Average Record
Temperature  
Mean Temperature 41 °F 49 °F  
Max Temperature 49 °F 60 °F 85 °F (1971)
Min Temperature 33 °F 38 °F 26 °F (1962)
Degree Days  
Heating Degree Days 24 16  
Month to date heating degree days 42 32  
Since 1 July heating degree days 432 478  
Cooling Degree Days 0 0  
Month to date cooling degree days 0 0  
Year to date cooling degree days 1145 895  
Moisture  
Dew Point 30 °F    
Average Humidity 61    
Maximum Humidity 76    
Minimum Humidity 46    
Precipitation  
Precipitation 0.00 in 0.11 in 1.60 in (1940)
Month to date precipitation T 0.22  
Year to date precipitation 28.63 33.08  
Sea Level Pressure  
Sea Level Pressure 29.82 in    
Wind  
Wind Speed 12 mph (West)    
Max Wind Speed 25 mph    
Max Gust Speed 31 mph    
Visibility 10 miles    
Events      
T = Trace of Precipitation, MM = Missing Value Source: NWS Daily Summary

Daily Weather History Graph

Daily Weather History Graph

Search for Another Location

Airport:

Trip Planner

Search our weather history database for the weather conditions in past years. The results will help you decide how hot, cold, wet, or windy it might be!

Date:

Astronomy

Nov. 02, 2012 Rise Set
Actual Time 7:41 AM EDT 6:08 PM EDT
Civil Twilight 7:13 AM EDT 6:36 PM EDT
Nautical Twilight 6:41 AM EDT 7:08 PM EDT
Astronomical Twilight 6:10 AM EDT 7:39 PM EDT
Moon 8:55 PM EDT (11/2) 10:59 AM EDT (11/2)
Length of Visible Light 11h 23m
Length of Day
10h 27m
Waning Gibbous, 87% of the Moon is Illuminated
Nov 2
Waning Gibbous
Nov 6
Last Quarter
Nov 13
New
Nov 20
First Quarter
Nov 28
Full

Hourly Weather History & Observations

Time (EDT) Temp. Windchill Dew Point Humidity Pressure Visibility Wind Dir Wind Speed Gust Speed Precip Events Conditions
12:53 AM 45.0 °F 40.6 °F 30.9 °F 58% 29.75 in 10.0 mi West 8.1 mph - N/A   Scattered Clouds
1:53 AM 44.1 °F 38.6 °F 30.9 °F 60% 29.76 in 10.0 mi West 10.4 mph - N/A   Clear
2:53 AM 39.9 °F 36.7 °F 30.9 °F 70% 29.75 in 10.0 mi West 4.6 mph - N/A   Clear
3:53 AM 39.0 °F 36.8 °F 30.9 °F 73% 29.75 in 10.0 mi South 3.5 mph - N/A   Partly Cloudy
4:53 AM 37.9 °F 35.5 °F 30.9 °F 76% 29.74 in 10.0 mi South 3.5 mph - N/A   Clear
5:53 AM 39.9 °F 35.1 °F 30.0 °F 68% 29.75 in 10.0 mi WSW 6.9 mph - N/A   Overcast
6:53 AM 43.0 °F 38.8 °F 30.0 °F 60% 29.75 in 10.0 mi SW 6.9 mph - N/A   Overcast
7:53 AM 42.1 °F 36.6 °F 30.9 °F 65% 29.77 in 10.0 mi WSW 9.2 mph - N/A   Overcast
8:53 AM 44.1 °F 38.1 °F 30.9 °F 60% 29.77 in 10.0 mi West 11.5 mph 17.3 mph N/A   Scattered Clouds
9:53 AM 46.0 °F 43.1 °F 30.9 °F 56% 29.80 in 10.0 mi WNW 5.8 mph - N/A   Overcast
10:53 AM 46.9 °F - 30.9 °F 54% 29.79 in 10.0 mi NW 12.7 mph 20.7 mph N/A   Overcast
11:53 AM 46.9 °F - 30.0 °F 52% 29.81 in 10.0 mi WNW 9.2 mph - N/A   Mostly Cloudy
12:53 PM 46.9 °F - 28.9 °F 50% 29.80 in 10.0 mi WNW 10.4 mph - N/A   Overcast
1:53 PM 48.0 °F - 28.9 °F 48% 29.80 in 10.0 mi WNW 18.4 mph 21.9 mph N/A   Overcast
2:53 PM 46.9 °F - 28.9 °F 50% 29.81 in 10.0 mi WNW 11.5 mph - N/A   Overcast
3:53 PM 46.9 °F - 28.9 °F 50% 29.83 in 10.0 mi WNW 12.7 mph 19.6 mph N/A   Overcast
4:53 PM 46.9 °F - 28.0 °F 48% 29.85 in 10.0 mi West 23.0 mph 29.9 mph N/A   Overcast
5:53 PM 46.0 °F 38.8 °F 28.9 °F 51% 29.87 in 10.0 mi WNW 18.4 mph 24.2 mph N/A   Overcast
6:53 PM 45.0 °F 37.4 °F 28.9 °F 53% 29.90 in 10.0 mi WNW 18.4 mph 26.5 mph N/A   Overcast
7:53 PM 45.0 °F 38.5 °F 28.9 °F 53% 29.91 in 10.0 mi WNW 13.8 mph 26.5 mph N/A   Overcast
8:53 PM 44.1 °F 37.1 °F 28.9 °F 55% 29.93 in 10.0 mi West 15.0 mph - N/A   Overcast
9:53 PM 44.1 °F 36.8 °F 28.9 °F 55% 29.94 in 10.0 mi WNW 16.1 mph 28.8 mph N/A   Overcast
10:53 PM 43.0 °F 36.4 °F 30.0 °F 60% 29.95 in 10.0 mi WNW 12.7 mph - N/A   Overcast
11:53 PM 43.0 °F 35.1 °F 27.0 °F 53% 29.95 in 10.0 mi WNW 17.3 mph 23.0 mph N/A   Overcast